Delta, CO

8:56 PM MDT on July 25, 2017 (GMT -0600)
Delta

Weather History for KAJZ - September, 2012

Change the Weather History Date:

Wednesday, September 5, 2012

  Actual Average (KMTJ) Record (KMTJ)
Temperature  
Mean Temperature 70 °F -  
Max Temperature 91 °F 79 °F 92 °F (2013)
Min Temperature 50 °F 49 °F 36 °F (2004)
Cooling Degree Days 6    
Growing Degree Days 20 (Base 50)    
Moisture  
Dew Point 24 °F    
Average Humidity 20    
Maximum Humidity 43    
Minimum Humidity 6    
Precipitation  
Precipitation 0.00 in - - ()
Sea Level Pressure  
Sea Level Pressure 30.16 in    
Wind  
Wind Speed 5 mph ()    
Max Wind Speed 13 mph    
Max Gust Speed 24 mph    
Visibility 10.0 miles    
Events      
Averages and records for this station are not official NWS values.
T = Trace of Precipitation, MM = Missing Value Source: Averaged Metar Reports

Daily Weather History Graph

Daily Weather History Graph

Search for Another Location

Airport or City:

Trip Planner

Search our weather history database for the weather conditions in past years. The results will help you decide how hot, cold, wet, or windy it might be!

Date:

Astronomy

Sep. 05, 2012 Rise Set
Actual Time 6:45 AM MDT 7:35 PM MDT
Civil Twilight 6:18 AM MDT 8:02 PM MDT
Nautical Twilight 5:46 AM MDT 8:34 PM MDT
Astronomical Twilight 5:13 AM MDT 9:07 PM MDT
Moon 10:11 PM MDT (9/5) 11:48 AM MDT (9/5)
Length of Visible Light 13h 44m
Length of Day
12h 50m
Waning Gibbous, 75% of the Moon is Illuminated
Sep 5
Waning Gibbous
Sep 8
Last Quarter
Sep 15
New
Sep 22
First Quarter
Sep 29
Full

Hourly Weather History & Observations

Time (MDT) Temp. Dew Point Humidity Pressure Visibility Wind Dir Wind Speed Gust Speed Precip Events Conditions
12:15 AM 64.9 °F 25.9 °F 23% 30.16 in 10.0 mi ENE 6.9 mph - N/A   Unknown
12:35 AM 64.4 °F 26.6 °F 24% 30.16 in 10.0 mi ENE 8.1 mph - N/A   Unknown
12:55 AM 63.7 °F 26.1 °F 24% 30.17 in 10.0 mi NE 8.1 mph - N/A   Unknown
1:15 AM 64.4 °F 26.2 °F 24% 30.17 in 10.0 mi NE 8.1 mph - N/A   Unknown
1:35 AM 64.6 °F 26.1 °F 23% 30.17 in 10.0 mi East 9.2 mph - N/A   Unknown
1:55 AM 61.5 °F 26.2 °F 26% 30.17 in 10.0 mi NE 5.8 mph - N/A   Unknown
2:15 AM 61.0 °F 25.0 °F 25% 30.17 in 10.0 mi East 6.9 mph - N/A   Unknown
2:35 AM 59.4 °F 28.0 °F 30% 30.19 in 10.0 mi SW 4.6 mph - N/A   Unknown
2:55 AM 58.1 °F 28.4 °F 32% 30.19 in 10.0 mi West 3.5 mph - N/A   Unknown
3:15 AM 57.0 °F 30.4 °F 36% 30.19 in 10.0 mi NNE 5.8 mph - N/A   Unknown
3:35 AM 59.0 °F 27.3 °F 30% 30.19 in 10.0 mi East 8.1 mph - N/A   Unknown
3:55 AM 57.7 °F 27.5 °F 31% 30.19 in 10.0 mi NE 6.9 mph - N/A   Unknown
4:15 AM 56.3 °F 27.7 °F 33% 30.19 in 10.0 mi East 6.9 mph - N/A   Unknown
4:35 AM 54.1 °F 28.2 °F 37% 30.20 in 10.0 mi Calm Calm - N/A   Unknown
4:55 AM 52.5 °F 29.7 °F 42% 30.20 in 10.0 mi Calm Calm - N/A   Unknown
5:15 AM 52.5 °F 30.2 °F 42% 30.20 in 10.0 mi Calm Calm - N/A   Unknown
5:35 AM 52.3 °F 30.4 °F 43% 30.21 in 10.0 mi Calm Calm - N/A   Unknown
5:55 AM 53.2 °F 28.8 °F 39% 30.22 in 10.0 mi ENE 5.8 mph - N/A   Unknown
6:15 AM 53.1 °F 27.1 °F 37% 30.22 in 10.0 mi NE 4.6 mph - N/A   Unknown
6:35 AM 51.4 °F 28.0 °F 40% 30.22 in 10.0 mi Calm Calm - N/A   Unknown
6:55 AM 50.9 °F 27.7 °F 41% 30.23 in 10.0 mi East 4.6 mph - N/A   Unknown
7:15 AM 53.1 °F 28.0 °F 38% 30.24 in 10.0 mi ESE 3.5 mph - N/A   Unknown
7:35 AM 54.9 °F 27.9 °F 35% 30.24 in 10.0 mi ENE 8.1 mph - N/A   Unknown
7:55 AM 56.7 °F 27.7 °F 33% 30.24 in 10.0 mi NNE 3.5 mph - N/A   Unknown
8:15 AM 59.0 °F 29.1 °F 32% 30.25 in 10.0 mi Calm Calm - N/A   Unknown
8:35 AM 61.9 °F 28.8 °F 29% 30.25 in 10.0 mi East 4.6 mph - N/A   Unknown
8:55 AM 61.9 °F 30.7 °F 31% 30.25 in 10.0 mi Calm Calm - N/A   Unknown
9:15 AM 63.3 °F 30.2 °F 29% 30.25 in 10.0 mi Calm Calm - N/A   Unknown
9:35 AM 66.4 °F 29.5 °F 25% 30.25 in 10.0 mi Calm Calm - N/A   Unknown
9:55 AM 68.5 °F 29.7 °F 23% 30.25 in 10.0 mi Calm Calm - N/A   Unknown
10:15 AM 71.4 °F 30.6 °F 22% 30.25 in 10.0 mi East 3.5 mph - N/A   Unknown
10:35 AM 72.3 °F 30.6 °F 21% 30.23 in 10.0 mi ESE 3.5 mph - N/A   Unknown
10:55 AM 75.0 °F 29.3 °F 19% 30.23 in 10.0 mi Calm Calm - N/A   Unknown
11:15 AM 77.0 °F 28.4 °F 17% 30.23 in 10.0 mi Calm Calm - N/A   Unknown
11:35 AM 78.3 °F 24.8 °F 14% 30.22 in 10.0 mi Calm Calm - N/A   Unknown
11:55 AM 79.3 °F 25.9 °F 14% 30.21 in 10.0 mi South 4.6 mph - N/A   Unknown
12:15 PM 80.2 °F 26.6 °F 14% 30.20 in 10.0 mi South 4.6 mph - N/A   Unknown
12:35 PM 82.0 °F 26.6 °F 13% 30.19 in 10.0 mi SSW 4.6 mph - N/A   Unknown
12:55 PM 83.5 °F 27.3 °F 13% 30.18 in 10.0 mi SSW 6.9 mph - N/A   Unknown
1:15 PM 84.7 °F 23.4 °F 11% 30.17 in 10.0 mi South 5.8 mph - N/A   Unknown
1:35 PM 86.0 °F 25.5 °F 11% 30.16 in 10.0 mi South 6.9 mph - N/A   Unknown
1:55 PM 87.4 °F 27.3 °F 11% 30.15 in 10.0 mi South 6.9 mph - N/A   Unknown
2:15 PM 89.1 °F 25.3 °F 10% 30.14 in 10.0 mi SE 9.2 mph - N/A   Unknown
2:35 PM 90.5 °F 13.8 °F 6% 30.14 in 10.0 mi WNW 8.1 mph 16.1 mph N/A   Unknown
2:55 PM 91.6 °F 14.4 °F 6% 30.13 in 10.0 mi WNW 6.9 mph 20.7 mph N/A   Unknown
3:15 PM 91.2 °F 14.4 °F 6% 30.12 in 10.0 mi West 6.9 mph 18.4 mph N/A   Unknown
3:35 PM 91.2 °F 14.9 °F 6% 30.11 in 10.0 mi West 4.6 mph 20.7 mph N/A   Unknown
3:55 PM 91.6 °F 14.5 °F 6% 30.10 in 10.0 mi WNW 6.9 mph 20.7 mph N/A   Unknown
4:15 PM 91.9 °F 14.7 °F 6% 30.09 in 10.0 mi WNW 12.7 mph 19.6 mph N/A   Unknown
4:35 PM 91.6 °F 14.5 °F 6% 30.09 in 10.0 mi West 6.9 mph 24.2 mph N/A   Unknown
4:55 PM 91.4 °F 14.5 °F 6% 30.08 in 10.0 mi NW 6.9 mph 16.1 mph N/A   Unknown
5:15 PM 90.7 °F 14.2 °F 6% 30.08 in 10.0 mi WSW 11.5 mph 18.4 mph N/A   Unknown
5:35 PM 90.9 °F 14.5 °F 6% 30.07 in 10.0 mi WSW 4.6 mph 23.0 mph N/A   Unknown
5:55 PM 90.7 °F 14.9 °F 6% 30.07 in 10.0 mi WNW 11.5 mph 16.1 mph N/A   Unknown
6:15 PM 89.8 °F 14.7 °F 6% 30.07 in 10.0 mi West 6.9 mph - N/A   Unknown
6:35 PM 89.2 °F 14.7 °F 6% 30.07 in 10.0 mi West 5.8 mph - N/A   Unknown
6:55 PM 88.5 °F 15.4 °F 7% 30.06 in 10.0 mi West 8.1 mph - N/A   Unknown
7:15 PM 87.3 °F 15.4 °F 7% 30.07 in 10.0 mi WNW 5.8 mph 10.4 mph N/A   Unknown
7:35 PM 85.3 °F 15.4 °F 7% 30.07 in 10.0 mi NW 5.8 mph - N/A   Unknown
7:55 PM 82.2 °F 16.7 °F 9% 30.07 in 10.0 mi NNW 3.5 mph - N/A   Unknown
8:15 PM 79.3 °F 16.7 °F 10% 30.08 in 10.0 mi NNW 3.5 mph - N/A   Unknown
8:35 PM 76.3 °F 18.1 °F 11% 30.08 in 10.0 mi Calm Calm - N/A   Unknown
8:55 PM 73.4 °F 18.1 °F 12% 30.09 in 10.0 mi East 4.6 mph - N/A   Unknown
9:15 PM 70.3 °F 18.7 °F 14% 30.10 in 10.0 mi ESE 4.6 mph - N/A   Unknown
9:35 PM 69.4 °F 25.2 °F 19% 30.11 in 10.0 mi SE 4.6 mph - N/A   Unknown
10:15 PM 68.4 °F 23.9 °F 19% 30.12 in 10.0 mi North 4.6 mph - N/A   Unknown
10:35 PM 65.3 °F 25.9 °F 23% 30.12 in 10.0 mi NE 6.9 mph - N/A   Unknown
10:55 PM 62.2 °F 26.6 °F 26% 30.12 in 10.0 mi ENE 6.9 mph - N/A   Unknown
11:15 PM 63.9 °F 24.1 °F 22% 30.13 in 10.0 mi ENE 6.9 mph - N/A   Unknown
11:35 PM 66.0 °F 25.5 °F 22% 30.13 in 10.0 mi East 3.5 mph - N/A   Unknown
11:55 PM 63.0 °F 23.0 °F 22% 30.13 in 10.0 mi ESE 4.6 mph - N/A   Unknown